map of ABS home
Great Circle Mapper logo
ABS - Airport
Location
City:  Abu Simbel, Egypt
ICAO / IATA:HEBL / ABS

Details
Type:Airport (Aerodrome, Airfield)
Use:Public/Civil
Latitude:2222'33"N (22.375953)
Longitude:3136'42"E (31.611722)
Datum:WGS 1984
Elevation:616 ft (188 m)
Variation:3.61E (WMM2015 magnetic declination)
0.08 annual change
Runways:1
Longest:9843 × 148 ft (3000 × 45 m), paved

Time
Time Zone:UTC+2 (DST+3)
Local Time:

Weather
METAR:HEBL 031200Z 06010KT CAVOK 29/04 Q1013 NOSIG

Related Locations
Nearby:
Farthest:TUB: 12338 mi / 19857 km
Tubuai, Tubuai Islands, Austral Islands, PF

Find:

   beyond  
but within

Other Information
Maps:
NOTAMs:
Links:
Sources:

  
flag of Egypt   

Sectional Chart

Flight Planning
at skyvector.com

Satellite Image

Google Maps Satellite View

 

Copyright © 2004-2015 Karl L. Swartz. All rights reserved.
The Great Circle Mapper name and logo are trademarks of the Great Circle Mapper.
All other trademarks mentioned herein belong to their respective owners.
Please see credits for attibutions and further copyright information.

  Follow gcmap on Facebook Follow gcmap on Twitter Follow gcmap on Google+

hCard Microformat

Geo Microformat